OBJECT A

Satellite information

Favourite Embed

Satellite Type and Status

UNKNOWNIN ORBIT

Key statistics

Satellite OBJECT A at a glance.

Uptime

162

Days in orbit

Revolutions

≈ 15.2

Per day

Orbit

SSO

Sun Synchronous Orbit

Inclination

97.4

Latest

Satellite identification and parameters

Extended collection of information and parameters for OBJECT A.

Object identification

Identified? True

Debris? False

Object name: OBJECT A

International designator: 2025-100A

Object number (NORAD): 63982

Object ID (CCSDS): 63982

Country: PEOPLES REPUBLIC OF CHINA (PRC)

Current information (Y/N): Y

RCS size: MEDIUM

Orbital parameters

Period: 94.639 minutes

Inclination: 97.3949 deg

SMA: 6879.26 km

Apoapsis: 508.046 km

Periapsis: 494.203 km

RAAN: 7.4076 deg

Eccentricy: 0.0010061

Argument of periapsis: 120.2234 deg

Mean anomaly: 239.9999 deg

Mean motion: 15.21563939 rev/day

Mean motion (dot): 0.00018114 rev/day2

B* drag term: 0.00080426 1/REarth

Two-line elements (TLE)

Creation date: Oct. 22, 2025, 12:16 a.m.

Reference frame: TEME

Reference center: EARTH

Epoch: Oct. 21, 2025, 6:40 p.m. UTC

TLE line 0: 0 OBJECT A

TLE line 1: 1 63982U 25100A 25294.77818007 .00018114 00000-0 80426-3 0 9994

TLE line 2: 2 63982 97.3949 7.4076 0010061 120.2234 239.9999 15.21563939 24401

Live tracking on map

Real-time ground track for satellite OBJECT A.

In-orbit conjunctions

There are no conjunctions computed for OBJECT A, at the moment. Check back to stay up to date, as we update our databases every day.

Go to all conjunctions

Associated space launch

12 satellites from ADASPACE testing in-orbit data processing capabilities for other satellites with artificial intelligence assistance, as well as inter-satellite laser link communication techniques.

OBJECT A was lifted into orbit during the mission ‘Long March 2D | Space Computing Constellation’, on board a Long March 2D space rocket.

The launch took place on May 14, 2025, 4:12 a.m. from Launch Area 4 (SLS-2 / 603).

For more information about the launch, click the button.

Launch to space Long March 2D | Space Computing Constellation
Long March 2D | Space Computing Constellation

Agency: N/A

Status: Launch Successful

Launch date: May 14, 2025, 4:12 a.m. UTC

Rocket: Long March 2D

Launch pad: Launch Area 4 (SLS-2 / 603)

Location: Jiuquan Satellite Launch Center, People's Republic of China

...

Latest news about this satellite

News about space launch
Rocket Report: How is your payload fairing? Poland launches test rocket.

No thunder down under.

News about space launch
China launches first of 2,800 satellites for AI space computing constellation

China launched 12 satellites early Wednesday for a pioneering on-orbit computing project led by startup ADA Space and Zhejiang Lab. The post China launches first of 2,800 satellites for AI space computing constellation appeared first on SpaceNews.

News about space launch
Launch Roundup: Orbital launches from five countries planned

On the heels of a busy April, activity is ramping up for May with launches… The post Launch Roundup: Orbital launches from five countries planned appeared first on NASASpaceFlight.com.


Newsletter sign-up

Weekly statistics, charts and insights to help you stay on top of the space industry.